Regional Weather Roundup
Issued by NWS Boston, MA

Home | Current Version | Previous Version | Text Only | Print | Product List | Glossary On
Versions: 1 2 3 4 5 6 7 8 9 10 11 12 13 14 15 16 17 18 19 20 21 22 23 24 25 26 27 28 29 30 31 32 33 34 35 36 37 38 39 40 41 42 43 44 45 46 47 48 49 50
000
ASUS41 KBOX 290110
RWRBOX

REGIONAL WEATHER ROUNDUP
NATIONAL WEATHER SERVICE TAUNTON MA
900 PM EDT TUE JUL 28 2015

NOTE:  "FAIR" INDICATES FEW OR NO CLOUDS BELOW 12,000 FEET WITH NO
SIGNIFICANT WEATHER AND/OR OBSTRUCTIONS TO VISIBILITY.  THE FOLLOWING
OBSERVATION LOCATIONS DO NOT REPORT PRESENT WEATHER...PROVINCETOWN...
SMITHFIELD...BLOCK ISLAND...KEENE...AND OXFORD.

MAZALL-290200-
EASTERN MASSACHUSETTS

CITY           SKY/WX    TMP DP  RH WIND       PRES   REMARKS
BOSTON         PTCLDY    74  69  85 SE5       29.96R
BEVERLY        PTCLDY    74  67  78 CALM      29.95S
LAWRENCE       PTCLDY    76  65  68 CALM      29.98R
BEDFORD        PTCLDY    74  66  76 NE3       29.95R
BLUE HILL        N/A     75  66  73 S7        29.98R
NORWOOD        PTCLDY    74  67  78 CALM      29.96R
MARSHFIELD     PTCLDY    73  70  88 CALM      29.98R
PLYMOUTH       PTCLDY    70  67  90 CALM      29.97R
TAUNTON        PTCLDY    70  68  93 CALM      29.96R FOG
NEW BEDFORD    PTCLDY    72  70  93 CALM      29.96R
$$

MAZALL-290200-
CAPE COD AND THE ISLANDS

CITY           SKY/WX    TMP DP  RH WIND       PRES   REMARKS
FALMOUTH       PTCLDY    72  70  94 CALM      29.97R
HYANNIS        PTCLDY    73  71  93 SW6       29.96R
CHATHAM        PTCLDY    73  71  93 SW3       29.97R
PROVINCETOWN   PTCLDY    72  63  73 CALM      29.96R
NANTUCKET      FOG       72  70  93 SW7       29.97R VSB 1/2
MARTHAS VNYRD  PTCLDY    70  68  93 CALM      29.97R
$$

MAZALL-290200-
CENTRAL AND WESTERN MASSACHUSETTS

CITY           SKY/WX    TMP DP  RH WIND       PRES   REMARKS
WORCESTER      MOCLDY    74  66  76 NW5       30.00R
FITCHBURG      PTCLDY    78  68  71 W5        29.97R
ORANGE         PTCLDY    74  70  87 CALM      29.98R
SPRINGFIELD    PTCLDY    75  70  85 E3        29.95R
WESTFIELD      PTCLDY    74  71  91 S3        29.96R
NORTH ADAMS    CLEAR     72  66  81 CALM      29.99R
PITTSFIELD     PTCLDY    71  64  78 CALM      30.00R
$$

RIZALL-290200-
RHODE ISLAND

CITY           SKY/WX    TMP DP  RH WIND       PRES   REMARKS
PROVIDENCE     MOCLDY    75  68  78 CALM      29.97R
NEWPORT        MOCLDY    70  68  93 CALM      29.96R
BLOCK ISLAND   PTCLDY    75  70  83 SW14      29.97R
SMITHFIELD     MOCLDY    68  66  94 CALM      29.98R
WESTERLY       PTCLDY    73  69  87 CALM      29.96S
$$

CTZALL-290200-
CONNECTICUT

CITY           SKY/WX    TMP DP  RH WIND       PRES   REMARKS
BRADLEY INTL   MOCLDY    80  67  64 NW5       29.95R
HARTFORD       PTCLDY    84  64  50 N3        29.94R
BRIDGEPORT     CLEAR     82  72  71 SW7       29.95R
DANBURY        CLEAR     75  66  73 CALM      29.99R
GROTON         PTCLDY    75  70  84 S3        29.95R
NEW HAVEN      PTCLDY    81  67  62 CALM      29.95R
CHESTER        NOT AVBL
MERIDEN        PTCLDY    78  67  68 CALM      29.95R
WILLIMANTIC    PTCLDY    81  70  69 CALM      29.96R
OXFORD         PTCLDY    75  66  73 CALM      30.02R
$$

MEZ002-015-021-024-NHZ003-005-008-011-012-014-VTZ005-008-290200-
NORTHERN NEW ENGLAND

CITY           SKY/WX    TMP DP  RH WIND       PRES   REMARKS
PORTLAND ME    MOCLDY    71  65  81 SW7       29.94S
BANGOR ME      PTCLDY    66  64  93 S5        29.93R
CONCORD NH     PTCLDY    74  65  73 S3        29.95S
MANCHESTER NH  MOCLDY    80  71  74 SE6       29.94R
NASHUA NH      NOT AVBL
PORTSMOUTH NH  MOCLDY    71  67  87 SE6       29.95R
JAFFREY NH     PTCLDY    70  67  90 CALM      30.00F
KEENE NH       PTCLDY    72  64  78 CALM      29.98S
BURLINGTON VT  PTCLDY    77  69  76 S5        29.94F
MT. WASHINGTON MOCLDY    54  48  82 NW30        N/A
$$

NYZ052-076-290200-
EASTERN NEW YORK

CITY           SKY/WX    TMP DP  RH WIND       PRES   REMARKS
ALBANY         MOCLDY    81  66  60 CALM      29.96S
NEW YORK CITY  PTCLDY    85  62  46 S6        29.95R
$$

ANZALL-290200-
MARINE OBSERVATIONS

STATION/POSITION TIME  TEMP    WIND        PRES    VSBY  WAVE
                       AIR SEA DIR/SP/G                  HT/PER
                 (UTC) (F)     (DEG/KT/KT) (MB)    (MI)  (FT/S)
BOSTON BUOY      0050   71 71  130/  2/  2 1014.5R         2/ 8
BUZZARDS BAY     0000          240/ 12/ 13 1014.7S
NANTUCKET SOUND  0050   72 73  230/  8/ 10 1014.3R         1
MASS BAY-STELLWA 0004   71 66  220/  2/  4   N/A    1 7/8  2/ 8
ISLE OF SHOALS   0000   70     160/ 10/ 11 1013.8R
S OF BLOCK IS    0008      73                N/A           2/11
$$

......................KEY.........................
  SKY/WX - SKY CONDITION/PRESENT WEATHER
  TMP    - TEMPERATURE IN FAHRENHEIT
  DWPT   - DEWPOINT IN FAHRENHEIT
  RH     - RELATIVE HUMIDITY IN PERCENT
  WIND   - DIRECTION AND SPEED IN MPH
  PRES   - MEAN SEA LEVEL PRESSURE IN INCHES OF HG
  WCI    - WIND CHILL INDEX
  VSB    - VISIBILITY IN MILES
  HX     - HEAT INDEX
  TC     - TEMPERATURE IN CELSIUS
  VRB    - VARIABLE WIND DIRECTION
  N/A    - NOT AVAILABLE


USA.gov is the U.S. government's official web portal to all federal, state and local government web resources and services.